Regional Weather Roundup
Issued by NWS Albany, NY

Home | Current Version | Previous Version | Text Only | Print | Product List | Glossary On
Versions: 1 2 3 4 5 6 7 8 9 10 11 12 13 14 15 16 17 18 19 20 21 22 23 24 25 26 27 28 29 30 31 32 33 34 35 36 37 38 39 40 41 42 43 44 45 46 47 48 49 50
645
ASUS41 KALY 072310
RWRALY

NEW YORK STATE HOURLY WEATHER ROUNDUP
NATIONAL WEATHER SERVICE ALBANY NY
600 PM EST WED DEC 07 2016

NOTE: "FAIR" INDICATES FEW OR NO CLOUDS BELOW 12,000 FEET WITH NO
SIGNIFICANT WEATHER AND/OR NO OBSTRUCTIONS TO VISIBILITY.

NYZ032-033-038>043-046>054-057>066-NYZ062>081-082-084-080000-
EAST


CITY           SKY/WX    TMP DP  RH WIND       PRES   REMARKS
ALBANY         MOCLDY    33  32  96 S3        30.02R
GLENS FALLS    PTCLDY    34  29  82 SW3       29.99R
POUGHKEEPSIE   CLEAR     35  35 100 CALM      30.02R
NEWBURGH       PTCLDY    36  36 100 W7        30.02R WCI  30
MONTGOMERY     CLEAR     33  32  96 SW5       30.01R WCI  29
WHITE PLAINS   PTCLDY    39  34  82 W3        30.02R
ISLIP          CLOUDY    44  38  79 W8        30.03R
NEW YORK CITY  CLOUDY    47  35  63 N8        30.03R
CENTRAL PARK   MOCLDY    45  34  65 CALM      30.05R
$$

NYZ005>009-017-018-044>046-055-056-080000-
CENTRAL


CITY           SKY/WX    TMP DP  RH WIND       PRES   REMARKS
FULTON         CLOUDY    39  29  67 SW6       29.99R WCI  35
SYRACUSE       MOCLDY    37  29  72 SW7       29.99S WCI  32
ROME           CLOUDY    37  29  72 CALM      30.00S
ELMIRA         CLOUDY    35  28  75 CALM      30.00R
BINGHAMTON     PTCLDY    34  25  69 NW3       29.97R
MONTICELLO     CLEAR     34  32  93 W3        29.99S
$$

NYZ026>034-041>043-087-080000-
NORTH


CITY           SKY/WX    TMP DP  RH WIND       PRES   REMARKS
WATERTOWN      MOCLDY    37  29  72 W12       29.96F WCI  29
FORT DRUM      NOT AVBL
OGDENSBURG     CLOUDY    37  28  70 SW7       29.94S WCI  32
MASSENA        MOCLDY    36  27  69 SW10      29.94S WCI  28
SARANAC LAKE   CLOUDY    32  25  75 SW9       29.89S WCI  24
PLATTSBURGH    CLOUDY    39  29  67 S3        29.95R
$$

NYZ001>004-010>016-019>021-085-080000-
WEST


CITY           SKY/WX    TMP DP  RH WIND       PRES   REMARKS
NIAGARA FALLS  PTCLDY    38  28  67 SW20      29.96S WCI  28
BUFFALO        MOCLDY    38  28  67 SW21G29   29.97S WCI  28
DUNKIRK        PTCLDY    34  27  75 S10       30.02R WCI  26
JAMESTOWN      PTCLDY    32  21  64 SW9       29.97S WCI  24
WELLSVILLE     CLOUDY    35  22  58 SW5       29.97S WCI  31
ROCHESTER      CLOUDY    37  28  70 SW12      29.98S WCI  29
PENN YAN       PTCLDY    37  24  59 SW7       29.98F WCI  32
$$

             KEY
       WCI = WIND CHILL INDEX
       VSB = VISIBILITY
       HX  = HEAT INDEX
$$




USA.gov is the U.S. government's official web portal to all federal, state and local government web resources and services.